Tracking 18823 objects as of 22-October-2017
HD Live streaming from Space Station
objects crossing your sky now

HYLAS 2

Track HYLAS 2 now!
HYLAS 2 is classified as:


NORAD ID: 38741
Int'l Code: 2012-043B
Perigee: 35,786.3 km
Apogee: 35,801.3 km
Inclination: 0.0 °
Period: 1,436.1 minutes
Semi major axis: 42164 km
RCS: 1.4658 m2 (large)
Launch date: August 2, 2012
Source: United Kingdom (UK)
Launch site: FRENCH GUIANA (FRGUI)

HYLAS 2, owned by Avanti Communications of London, carries 24 Ka-band transponders and is designed to provide broadband links to African customers. Hylas 2 is likely to be operated at 31 degrees east.
aabbcc
Your satellite tracking list
Your tracking list is empty





NASA's NSSDC Master Catalog

Two Line Element Set (TLE):
1 38741U 12043B   17294.82923045  .00000143  00000-0  00000+0 0  9996
2 38741   0.0210 250.9653 0001780 308.1967 160.8587  1.00271575 19168
Source of the keplerian elements: AFSPC